Wind_Speed
42 41 42 44 43 41 39 38 37 38 36 34 33 31 30 28 28 28 27 25 23 23 25 27 29 31 32 33 33 29 24 20 20 22 23 24 24 25 26 26 27 30 32 32 29 25 22 22 21 21 21 20 18 18 18 18 18 18 19 19 19 19 19 19 20 20 21 21 22 22 23 24 24 24 25 26 26 26 26 26 26 24 24 23 23
43 45 46 46 44 41 39 39 39 39 37 35 33 31 29 28 27 27 25 24 23 24 26 28 31 32 33 33 31 26 22 21 22 24 25 25 26 28 29 30 31 32 32 32 30 23 20 21 22 21 22 22 21 20 20 21 21 22 22 22 23 23 23 23 23 24 25 26 27 27 28 29 29 29 29 29 29 29 28 28 28 28 27 26 26
48 48 48 46 43 42 41 40 40 40 38 35 33 31 29 27 26 26 25 24 23 24 26 29 31 32 33 33 29 23 21 22 24 26 27 28 29 31 33 33 33 32 32 33 28 20 19 21 21 21 22 22 21 20 19 20 22 23 24 25 25 25 25 25 26 27 27 28 29 29 30 29 29 29 30 30 31 31 31 30 31 31 31 30 29
50 49 46 44 43 41 40 40 40 39 37 35 32 30 28 26 25 25 24 24 24 25 27 29 31 33 33 30 26 22 22 24 26 27 28 29 31 33 34 34 34 33 34 33 25 18 19 20 20 20 21 22 22 20 19 20 20 21 23 23 23 23 23 24 24 25 26 26 27 27 27 27 26 26 27 29 31 32 33 33 33 33 33 32 31
50 48 46 44 43 40 38 38 36 34 33 33 32 30 28 26 25 25 24 25 25 27 28 30 31 32 30 27 24 23 24 26 27 29 30 30 32 34 34 34 32 31 32 29 22 18 17 15 16 19 20 21 22 21 21 21 20 20 20 20 20 20 20 21 22 23 23 24 24 25 25 25 25 25 25 26 29 31 33 34 34 34 35 35 34
49 48 46 45 44 40 38 37 35 32 31 30 30 29 27 26 25 25 26 26 27 28 28 29 30 29 26 25 24 25 26 27 28 30 30 30 32 32 32 29 27 27 28 24 20 19 18 16 16 17 18 20 21 21 22 21 20 20 21 21 20 19 20 22 23 22 22 22 22 23 23 24 25 25 25 26 27 29 31 32 34 34 35 35 35
49 47 46 45 45 42 39 36 33 31 29 29 28 27 26 25 25 26 27 27 26 26 27 28 27 25 24 25 26 27 28 29 31 31 30 30 30 28 27 25 26 29 25 20 19 20 21 21 20 20 19 20 20 21 21 21 21 23 24 24 22 23 24 24 23 22 21 20 20 21 22 23 24 25 26 26 27 28 29 31 33 34 34 34 34
46 46 45 45 44 41 39 35 31 29 28 27 26 25 25 25 25 25 24 24 24 25 27 27 25 24 24 26 27 29 30 32 33 33 31 30 29 28 27 26 28 29 22 17 17 19 21 22 23 22 23 23 23 23 24 24 26 27 28 27 27 27 27 26 24 21 19 17 17 17 19 21 23 25 26 27 28 28 29 31 32 33 35 34 33
45 45 45 45 43 40 37 33 30 29 28 26 25 24 23 24 23 22 22 22 24 26 28 27 25 24 25 27 29 31 33 34 34 33 31 32 32 30 27 26 25 24 21 18 18 19 20 21 22 22 23 25 26 26 27 29 30 30 30 30 30 30 27 25 24 22 19 17 16 17 19 20 22 23 25 26 28 29 30 31 31 32 33 35 35
45 46 45 44 42 40 37 34 33 32 30 28 25 23 22 22 21 21 22 24 26 28 28 27 25 25 27 29 31 33 34 34 34 33 33 33 32 27 23 22 21 19 19 19 18 19 20 20 21 21 22 23 25 27 29 30 32 33 32 32 32 30 27 25 24 22 20 18 18 19 20 20 21 22 22 24 26 28 30 30 30 30 31 32 34
47 46 45 44 42 40 38 36 35 33 31 27 25 23 22 21 21 21 24 27 28 28 28 27 26 27 29 30 32 33 34 34 35 35 34 31 27 24 22 21 19 18 18 19 19 20 21 22 22 23 24 24 25 27 29 30 32 33 33 32 31 29 27 27 25 23 22 22 22 22 22 23 23 23 23 23 24 26 28 29 30 30 30 30 31
47 46 45 44 42 40 38 36 33 30 27 25 24 22 21 22 23 25 27 28 28 28 27 27 27 29 30 32 33 34 35 36 35 34 31 27 25 25 21 16 15 16 17 19 20 21 22 23 25 26 27 26 26 26 28 29 31 31 31 30 29 28 28 28 28 27 26 26 26 26 26 27 26 25 24 24 25 25 27 29 30 31 31 31 31
46 45 43 41 40 38 37 34 30 27 25 24 22 22 23 25 27 28 28 27 27 28 28 28 29 30 32 33 34 35 35 34 33 30 27 26 26 24 17 11 14 16 17 20 21 21 24 26 27 29 29 28 27 26 27 28 29 28 28 29 29 30 30 28 29 29 28 29 30 30 31 31 29 28 27 26 26 26 27 29 30 31 32 33 33
43 41 39 38 37 35 34 32 29 26 25 24 23 24 26 28 30 29 26 26 27 28 28 29 29 30 31 32 33 33 33 31 29 27 25 26 25 21 15 10 15 18 19 22 22 23 26 28 29 29 29 30 29 27 27 28 29 30 31 31 31 32 31 30 31 32 32 32 34 34 36 35 33 31 30 29 28 28 27 28 30 32 33 34 35
41 39 37 36 34 34 32 30 28 26 25 24 24 25 28 29 28 26 24 25 27 27 27 27 27 28 29 29 30 30 29 28 26 24 25 25 22 18 15 13 16 21 23 24 24 24 26 28 30 30 29 30 30 29 29 29 31 32 33 32 33 33 33 33 34 34 33 35 37 38 39 40 36 33 32 31 31 30 28 27 29 31 33 35 35
40 39 37 35 35 34 31 29 27 26 25 24 24 26 27 26 25 24 24 25 25 25 25 26 27 28 28 28 28 28 28 26 22 22 23 22 19 17 18 19 20 23 27 29 29 29 29 29 30 31 32 32 33 33 32 31 32 33 34 35 36 36 36 35 35 34 35 37 39 40 40 42 40 35 33 33 32 31 29 28 29 31 33 34 35
41 39 38 37 37 35 32 29 27 25 24 24 24 25 24 24 24 24 23 23 23 23 23 25 28 29 29 27 27 27 26 23 20 20 20 18 16 16 20 24 25 25 28 31 32 33 34 34 33 34 35 36 37 37 37 37 36 36 38 39 39 38 38 38 38 39 40 40 40 40 39 40 40 38 36 36 34 32 32 31 31 32 33 32 32
42 41 40 39 37 35 33 30 27 25 24 24 24 24 24 24 24 22 21 21 21 22 24 26 28 29 28 27 26 26 25 22 19 18 17 15 14 14 16 22 26 29 31 32 33 34 35 36 36 36 38 39 38 38 39 39 39 39 40 40 40 40 39 40 40 40 40 40 38 39 39 38 39 38 38 39 39 37 35 34 34 33 34 33 32
40 39 38 35 33 32 31 29 26 24 23 24 24 24 24 23 22 21 21 21 22 23 24 26 28 29 28 27 26 26 24 22 20 18 17 15 14 13 14 16 21 26 31 34 36 36 36 37 37 37 38 39 39 39 40 40 41 41 40 40 40 40 40 39 38 37 38 38 37 39 40 39 39 38 38 40 42 41 39 37 35 35 35 36 35
35 33 32 30 29 28 27 26 25 24 23 23 24 24 23 23 22 22 23 24 25 25 26 27 29 29 28 27 26 25 24 23 22 20 19 17 15 14 14 15 16 19 23 28 31 34 35 35 35 36 37 37 38 38 38 38 38 38 38 38 38 38 37 35 34 32 33 35 37 39 41 41 41 40 40 40 42 43 42 39 38 37 36 37 37
30 29 28 28 27 26 25 25 25 24 23 23 24 24 24 25 25 26 27 28 28 28 28 29 29 30 30 28 27 26 25 25 24 23 21 20 17 17 16 16 17 18 19 21 23 24 26 27 28 29 31 32 33 33 33 33 33 33 33 33 32 32 31 30 29 28 29 31 35 38 41 43 44 44 44 43 42 43 43 42 41 41 40 39 39
28 27 26 25 24 24 24 24 24 24 24 24 25 26 27 28 29 30 31 31 30 30 29 30 30 30 30 30 29 27 27 27 27 25 23 22 20 20 20 20 19 20 20 20 20 21 22 23 24 25 26 28 29 29 30 30 30 30 30 30 29 29 28 28 27 27 27 28 30 33 36 39 42 43 43 44 44 45 46 46 46 46 45 44 43
28 26 25 24 22 22 22 23 24 25 25 26 27 29 30 31 33 33 33 32 31 31 30 31 31 31 31 31 31 29 29 29 29 27 25 23 23 23 23 23 22 22 22 21 21 22 22 23 24 25 26 28 28 29 29 29 29 29 29 29 28 27 27 27 28 28 29 29 29 30 31 33 35 37 38 40 41 44 46 47 48 49 48 47 46
29 27 26 25 24 23 22 23 24 25 27 28 29 31 33 34 34 34 33 32 32 32 32 32 32 32 33 32 32 31 31 31 31 29 27 25 25 25 25 25 25 25 25 24 24 24 24 24 25 27 28 29 29 29 30 30 30 29 28 27 27 27 28 29 30 31 31 31 31 31 31 32 32 34 35 37 38 40 42 44 45 47 47 46 46
29 29 28 27 26 25 25 24 25 26 27 28 29 31 32 33 33 33 32 32 33 33 33 33 33 34 34 33 33 33 33 33 32 31 29 28 27 27 27 28 28 28 28 27 27 26 26 26 27 29 30 31 31 31 31 31 31 31 30 31 32 34 34 35 35 35 35 35 35 34 34 34 33 34 35 37 39 41 42 44 45 46 47 47 47
30 29 29 28 28 27 26 26 27 27 27 28 29 30 31 31 32 32 32 33 33 34 34 34 34 34 34 34 33 34 34 34 34 33 31 30 29 29 29 30 31 31 31 31 30 28 28 28 29 31 32 33 33 33 34 34 34 34 35 36 37 37 38 38 39 39 40 40 40 39 38 37 36 35 35 37 39 41 43 45 46 48 49 50 50
30 30 30 29 29 28 27 27 28 28 28 28 29 30 30 31 31 32 33 33 34 34 34 34 34 34 34 34 34 35 35 35 35 34 33 32 31 31 31 31 32 34 34 34 33 32 31 31 32 32 34 35 36 36 36 36 36 36 37 38 38 38 38 38 39 40 41 43 44 43 42 41 40 39 38 37 39 41 42 44 46 47 49 50 52
33 32 31 30 28 27 27 27 27 28 28 28 28 29 30 31 32 33 34 34 35 35 35 35 35 35 35 35 35 36 36 37 37 36 35 34 33 33 33 34 34 36 37 37 37 36 35 34 34 34 36 38 39 39 38 37 36 37 38 39 40 40 39 38 39 41 42 43 44 45 44 43 42 42 41 40 41 42 43 44 44 45 46 47 50
32 31 31 31 30 29 29 28 28 27 27 27 27 28 29 30 32 33 35 36 36 36 36 36 36 36 36 36 36 37 38 38 39 38 37 37 36 36 36 36 36 37 39 40 40 39 39 37 36 37 39 41 42 42 40 38 36 37 39 40 42 42 41 41 43 44 45 45 45 45 44 43 42 41 42 43 44 44 44 44 43 42 43 44 46
32 33 33 33 33 33 32 31 29 28 26 26 26 27 28 30 31 33 34 35 36 36 36 36 36 36 36 37 37 38 39 39 40 40 40 40 39 39 38 38 37 38 40 41 41 42 41 40 40 40 42 44 44 43 41 40 39 39 41 43 45 44 42 44 46 45 44 44 43 42 41 41 40 40 41 43 46 46 43 40 39 40 42 43 45
36 36 36 35 34 33 32 30 29 27 26 25 25 26 27 28 30 31 33 34 35 36 37 38 38 38 38 38 39 39 39 39 40 41 42 41 40 40 40 39 39 39 41 41 42 42 42 42 42 43 45 47 46 43 42 41 41 43 45 47 47 45 45 47 45 41 39 38 37 37 37 37 37 38 39 42 45 43 38 36 38 40 43 45 46
36 35 34 34 33 31 30 29 27 26 23 21 21 21 23 24 26 28 31 33 34 35 37 38 39 40 41 41 41 41 41 40 41 42 42 41 41 41 41 40 40 40 41 42 42 43 43 44 45 47 49 50 48 45 44 44 45 48 48 46 45 44 46 43 37 34 33 32 31 32 33 32 31 31 34 37 39 37 36 37 41 43 45 47 49
36 34 32 31 30 29 27 25 23 21 18 17 17 19 20 22 24 26 28 30 32 34 35 36 37 38 40 41 41 41 41 41 41 42 42 41 41 41 41 41 41 41 42 42 43 44 45 46 48 50 50 49 47 46 46 48 49 49 46 43 43 44 41 35 31 32 32 31 31 29 28 28 27 27 29 31 33 36 40 44 45 45 45 46 47
40 37 34 32 28 25 24 23 23 21 18 18 20 22 23 25 26 26 28 29 31 32 34 35 35 36 38 38 39 39 39 40 40 41 41 41 41 41 41 42 42 43 44 44 45 46 48 50 51 50 49 47 46 47 49 51 50 48 43 40 41 40 34 30 31 33 35 36 34 30 28 28 28 28 29 31 35 41 46 48 47 45 43 43 44
42 41 38 34 30 27 28 28 27 25 24 24 25 27 28 29 30 29 29 30 30 32 34 35 36 37 37 37 38 38 39 40 41 41 41 41 42 42 42 43 44 45 46 47 48 50 52 52 51 49 48 47 48 50 52 52 49 46 43 41 40 38 34 32 33 35 38 40 37 33 31 31 31 32 34 37 40 44 47 48 46 45 43 42 42
41 40 40 38 36 36 35 32 30 30 31 31 31 32 33 34 34 33 32 31 31 32 34 36 37 38 38 38 39 40 41 42 43 44 43 43 43 43 44 45 47 48 50 51 52 52 52 51 49 49 48 49 51 52 51 49 47 45 43 41 41 40 38 37 38 39 41 42 40 37 34 33 34 35 37 40 42 44 46 47 46 45 45 45 44
40 39 39 40 40 41 40 37 37 39 38 37 37 37 38 38 37 36 34 33 32 33 34 36 38 40 41 41 42 43 43 44 45 46 46 45 45 45 46 48 50 51 53 53 54 53 51 50 50 50 50 50 51 50 48 46 45 44 43 42 43 43 42 42 43 44 43 44 44 42 41 40 39 39 40 42 43 45 46 46 47 47 47 48 48
46 45 44 44 45 45 44 43 43 41 40 41 41 42 42 41 39 38 37 36 35 35 36 38 39 41 42 44 44 44 45 46 47 47 47 47 47 48 49 51 52 53 54 54 54 53 52 52 52 52 52 51 49 46 45 45 45 44 43 44 44 45 46 46 46 47 47 46 46 47 47 47 46 45 45 46 46 47 48 48 49 49 51 52 52
51 50 48 47 46 45 45 45 43 42 43 44 45 45 45 44 42 41 40 40 39 38 38 39 40 42 43 44 44 44 45 46 48 49 49 49 49 50 51 52 53 53 54 54 54 54 53 53 53 53 53 51 47 46 46 45 45 45 45 45 45 47 49 49 48 48 48 48 48 49 50 51 52 51 51 51 52 52 52 52 53 54 55 56 56
47 47 46 44 43 43 44 45 44 45 46 46 46 47 47 46 46 45 44 44 44 44 43 42 41 42 43 44 45 45 45 46 48 50 51 52 52 52 53 53 54 54 54 54 54 55 55 55 54 53 51 49 48 48 48 46 46 46 46 46 47 48 50 51 50 49 48 48 48 50 52 54 55 56 56 56 56 56 57 57 59 60 60 60 60
46 45 45 45 45 46 46 46 46 48 48 48 48 48 48 49 50 50 50 50 51 50 48 46 43 42 42 43 44 45 46 46 47 49 50 52 52 53 54 55 55 55 55 56 56 57 57 57 55 53 50 49 50 51 50 49 47 46 46 46 47 48 49 50 50 49 48 48 49 51 54 56 58 60 60 60 60 61 62 63 64 65 65 65 65
53 52 50 49 49 49 49 49 50 50 50 50 51 51 52 53 54 55 56 56 56 55 52 48 45 43 42 43 44 45 46 47 47 48 49 51 53 54 56 57 58 58 58 59 60 61 60 59 57 54 52 52 54 55 54 52 50 49 48 48 47 48 49 49 50 51 50 51 52 54 56 59 61 63 64 65 66 67 67 68 69 69 70 71 71
55 53 52 51 51 52 52 53 53 53 54 54 55 56 57 57 57 58 59 59 59 57 54 50 47 45 44 43 43 44 45 46 47 47 47 49 51 54 56 58 60 61 61 61 61 61 59 58 56 55 55 57 58 58 57 55 54 53 52 52 51 52 52 53 54 54 55 55 56 58 60 62 65 66 68 70 71 72 72 73 73 74 75 77 77
49 49 51 52 54 54 55 56 56 56 57 58 59 59 59 59 59 60 60 60 59 57 54 51 48 46 45 44 43 43 43 44 45 46 47 48 50 52 55 57 59 59 59 58 57 56 56 56 56 58 59 61 61 61 60 59 59 58 57 57 57 57 57 57 58 59 60 61 61 63 65 67 69 70 72 74 76 77 77 77 77 78 80 81 81
50 52 54 56 57 58 58 58 59 59 60 60 60 59 59 59 59 59 59 59 58 56 54 51 49 47 46 46 45 45 45 45 46 47 48 50 51 53 54 55 55 55 55 54 54 55 56 58 60 61 63 64 65 66 66 66 65 64 63 62 62 62 62 62 63 63 65 66 67 68 70 72 74 75 76 78 80 80 81 81 81 83 85 85 83
56 57 59 60 60 60 61 61 61 61 61 60 59 58 58 58 58 58 58 58 57 55 53 52 51 50 49 48 48 47 47 48 48 50 51 53 53 54 54 55 55 55 56 56 58 60 62 64 65 66 67 68 69 69 70 70 70 69 68 67 67 67 67 67 68 68 69 70 71 72 74 76 77 79 80 82 83 84 84 85 86 87 89 87 84
62 63 64 64 64 64 64 64 65 64 63 63 62 61 59 58 58 57 57 57 57 56 55 54 54 53 52 51 50 50 50 50 51 52 53 54 55 55 55 56 57 58 60 63 65 67 69 70 70 70 70 71 72 72 72 73 73 72 72 71 70 70 70 71 72 72 73 74 75 76 77 79 81 82 84 86 87 88 88 89 90 91 89 86 82
68 68 68 68 68 69 69 69 69 68 68 67 66 64 61 60 60 59 59 58 58 57 57 57 57 56 54 53 53 53 54 54 54 54 55 55 55 55 56 57 58 59 63 68 72 73 74 74 74 74 73 74 75 76 76 77 76 75 75 74 74 74 75 75 76 77 78 78 79 81 82 83 85 87 88 90 91 92 92 92 91 90 86 82 79
70 70 71 71 72 73 73 73 72 71 71 69 67 65 63 62 61 61 61 61 61 60 60 59 58 57 56 55 56 57 57 58 57 57 56 55 55 57 58 60 62 65 69 73 76 77 78 78 78 77 76 76 77 79 80 81 79 79 78 78 79 79 80 81 81 82 82 83 85 87 88 89 90 91 91 92 93 93 93 92 90 87 84 80 77
70 71 73 74 74 75 75 75 74 73 72 71 69 67 65 64 63 63 63 63 63 63 62 62 61 60 60 60 61 62 63 63 63 62 61 61 62 63 66 68 71 74 77 79 80 81 82 83 82 81 81 80 81 83 84 82 81 81 82 82 83 83 84 86 86 87 88 89 90 91 91 92 92 92 91 91 91 92 92 91 90 88 86 82 78
73 74 75 76 76 76 76 76 75 74 73 73 73 71 70 70 68 67 66 66 66 66 66 65 65 66 66 67 68 69 70 71 71 71 71 71 73 75 77 79 81 82 83 85 86 86 87 87 87 87 87 87 87 87 85 82 81 81 82 83 85 86 87 88 89 90 91 91 92 92 91 91 92 91 91 90 90 91 92 92 92 91 89 84 79
Wind_Direction
288 291 296 299 300 299 296 294 295 298 298 296 295 295 298 299 298 296 294 291 289 287 287 290 293 297 301 305 307 304 299 295 293 295 298 300 299 298 299 300 300 302 305 309 309 295 282 282 278 276 278 276 267 260 259 260 260 260 258 257 257 260 262 262 262 262 263 263 263 266 268 270 269 269 269 269 267 265 265 264 261 258 257 257 257
288 292 296 297 298 297 295 293 295 298 297 295 294 295 297 297 296 293 290 288 287 287 289 292 295 298 301 305 304 297 291 290 293 297 300 301 301 301 302 304 303 303 303 305 306 295 279 276 272 269 271 272 271 264 257 256 256 256 257 258 259 261 265 267 268 269 269 270 271 272 273 274 273 273 272 270 267 264 263 262 261 260 259 257 255
289 292 294 295 296 297 295 294 295 296 295 294 293 295 296 295 293 290 287 286 286 287 289 291 294 297 302 303 298 290 285 288 293 296 299 301 303 303 304 306 305 304 304 304 302 288 274 274 271 270 271 273 274 270 265 262 260 260 259 259 259 260 262 264 266 268 269 269 270 271 272 273 274 273 271 269 265 261 259 259 259 259 259 257 255
288 290 292 294 297 298 296 295 296 294 293 292 292 294 295 293 290 289 287 287 287 288 289 290 292 296 300 298 290 284 284 289 293 296 299 302 303 304 305 305 305 304 303 301 293 275 271 275 273 272 273 275 275 272 273 274 272 270 267 265 264 264 265 266 267 268 268 268 268 269 269 269 269 269 268 267 264 260 257 256 256 256 256 255 255
287 288 291 295 299 298 297 298 297 295 293 291 290 292 293 290 289 288 285 286 286 287 288 290 292 295 296 292 284 281 284 289 294 297 299 301 305 305 305 305 305 305 303 294 278 263 265 271 274 273 273 274 275 275 277 278 278 277 275 273 270 270 272 273 273 272 271 271 271 270 269 269 267 265 265 264 264 262 260 258 257 257 256 255 254
286 287 290 294 298 297 297 299 298 297 296 293 292 291 290 287 284 281 280 282 284 285 287 291 293 294 292 286 280 279 283 289 294 297 298 302 307 305 303 303 303 305 302 288 270 259 256 254 258 265 270 273 274 275 277 277 279 282 283 281 278 279 285 285 282 280 278 277 276 274 272 271 268 265 263 262 262 262 262 261 260 260 259 258 257
285 286 290 294 297 298 299 299 297 296 297 296 294 291 286 282 277 275 278 281 283 285 288 292 292 290 287 282 277 278 282 288 294 296 297 301 304 301 300 300 301 301 296 284 270 262 259 254 251 254 259 265 270 273 275 276 280 286 288 287 285 289 295 294 290 288 286 285 284 282 278 275 271 267 264 262 262 262 262 262 261 260 259 259 258
285 288 291 294 296 298 299 298 296 296 298 297 295 289 283 277 274 275 277 280 284 287 290 292 290 286 284 280 278 279 282 288 293 294 295 299 300 298 298 297 300 296 283 273 272 269 268 265 262 261 259 259 264 269 273 275 280 285 288 287 287 291 295 295 293 291 288 289 292 293 290 283 277 272 268 266 265 264 264 263 262 260 259 257 257
286 289 291 293 294 296 296 294 293 295 297 296 291 285 280 275 274 276 279 282 287 290 291 292 290 286 283 281 280 281 285 289 292 292 294 298 300 303 303 299 298 290 271 266 272 275 276 274 273 271 269 267 265 268 273 276 280 284 286 285 286 288 290 290 290 289 289 292 300 304 302 294 285 279 273 271 269 269 266 264 263 262 260 258 257
286 289 291 292 293 294 293 290 290 291 293 293 288 281 277 274 275 278 282 286 289 290 291 292 290 286 284 283 283 285 287 290 292 292 294 299 301 305 302 292 289 281 268 267 273 279 280 282 280 276 275 274 273 273 276 279 281 282 283 283 284 286 287 287 287 289 291 292 297 300 301 300 298 292 284 279 276 273 271 268 265 263 262 260 257
286 289 290 291 292 293 292 292 292 291 290 287 283 278 275 275 277 280 285 289 289 290 291 292 290 287 286 286 287 288 289 291 293 293 296 298 300 299 293 286 282 274 266 265 270 276 277 278 278 276 277 278 280 281 281 281 280 279 279 280 281 283 286 288 287 287 286 285 288 292 295 299 302 300 295 290 285 279 275 271 267 265 264 262 259
286 287 288 289 291 292 293 294 293 290 287 283 281 279 277 278 279 282 286 288 288 290 290 291 290 288 288 289 290 290 290 292 294 295 298 298 298 297 294 285 270 265 264 262 264 270 273 273 272 272 274 277 280 282 281 281 279 276 275 275 277 280 284 287 286 283 282 281 283 288 293 298 300 299 297 294 290 283 278 273 268 265 263 262 261
286 287 287 288 290 291 292 292 290 289 287 286 284 278 275 275 277 280 283 285 287 289 290 290 289 288 289 290 291 291 291 293 295 298 299 299 301 301 299 274 251 257 261 257 259 263 266 269 270 271 273 277 280 279 277 276 275 274 273 272 274 277 281 284 284 281 280 280 282 288 293 296 297 297 295 293 290 285 280 274 269 265 262 261 260
285 285 286 287 287 288 289 287 287 288 288 286 280 273 270 271 275 279 281 284 286 288 289 289 288 288 290 291 291 291 292 294 297 299 300 302 305 304 302 271 243 249 252 250 253 255 258 261 265 269 271 273 276 275 272 270 271 273 273 273 274 277 279 280 280 280 279 280 282 287 291 293 294 294 292 289 288 286 283 279 274 269 264 261 260
283 284 285 285 286 288 288 286 286 288 286 283 277 271 269 271 274 278 282 285 286 286 287 287 288 289 290 290 290 290 291 294 297 299 301 304 305 297 290 273 247 243 245 246 248 249 252 255 258 263 265 267 269 269 268 267 269 271 271 272 274 277 280 281 283 283 283 284 285 288 290 292 292 291 288 285 284 284 283 280 277 273 268 263 261
283 284 284 285 287 289 288 286 287 288 285 282 277 273 271 272 275 279 282 284 284 285 286 288 288 289 289 289 289 289 291 294 294 297 302 304 300 280 264 261 253 246 247 250 250 249 252 253 254 257 260 262 264 265 267 268 269 270 272 275 277 280 283 285 286 287 287 287 288 290 291 291 292 289 285 281 279 279 277 276 276 274 270 265 262
282 283 284 286 287 287 285 285 286 286 284 281 278 274 272 273 276 278 279 280 283 285 288 290 289 289 289 288 288 289 290 290 289 295 302 303 299 278 254 249 249 247 249 251 252 253 255 255 256 258 259 262 264 266 268 271 273 275 277 279 280 281 283 284 285 287 286 286 287 286 284 285 287 286 283 279 276 274 272 270 271 272 270 265 262
281 282 284 286 285 283 282 282 282 282 282 280 276 273 272 273 275 275 277 281 284 287 289 290 290 289 288 287 287 287 287 284 284 291 297 299 299 287 264 251 246 246 247 249 251 253 255 256 258 261 264 266 268 270 272 274 276 278 279 280 281 281 282 283 284 283 282 282 282 279 276 276 276 277 276 274 273 272 270 268 268 268 267 265 262
281 282 283 284 282 281 280 279 278 278 279 278 276 274 272 270 270 274 279 284 286 288 290 290 289 287 285 284 284 284 283 279 280 285 288 292 296 293 282 266 255 251 250 251 254 257 260 261 264 268 271 273 274 276 277 279 280 280 281 282 282 283 283 282 281 279 278 277 276 273 272 271 270 269 269 270 271 271 270 269 268 266 264 264 263
280 280 281 281 281 280 279 277 276 277 277 277 276 272 267 264 267 274 282 286 287 288 289 288 287 285 283 282 281 280 278 274 276 279 281 285 291 292 287 280 272 264 258 256 257 260 264 266 269 272 275 277 279 280 280 281 281 281 281 280 280 280 280 280 279 277 276 274 273 271 269 269 268 268 268 269 270 272 272 271 269 266 263 263 264
277 279 280 280 280 279 278 277 276 276 276 274 272 268 264 263 268 276 283 286 287 287 287 286 284 284 282 280 280 278 274 271 272 275 278 282 286 288 287 284 281 276 270 266 264 265 268 270 273 275 277 279 280 282 282 282 281 281 280 280 280 279 279 279 279 278 276 273 270 268 265 264 264 265 266 267 268 269 269 269 268 267 265 264 264
278 281 280 280 279 279 278 278 277 275 274 271 268 266 265 266 271 278 283 285 285 284 284 283 282 281 280 279 278 276 272 270 270 273 277 280 283 286 285 284 283 281 279 274 271 272 274 277 280 282 283 284 284 284 283 283 282 282 282 283 284 284 284 284 284 282 280 277 273 270 266 264 263 262 262 263 263 263 265 267 268 268 268 268 267
278 279 278 278 279 280 281 279 277 274 271 269 267 267 268 270 274 279 282 281 281 281 280 279 278 277 277 276 275 274 271 269 269 271 275 279 281 283 284 283 283 283 282 277 274 275 277 281 284 286 287 287 287 286 285 284 283 284 286 287 288 288 288 288 288 287 286 283 281 278 275 272 269 266 263 260 259 259 260 263 266 267 269 269 268
273 274 274 276 277 278 280 280 279 275 272 270 268 268 269 271 274 276 278 278 277 277 276 276 275 274 273 273 272 271 269 268 268 270 274 277 279 280 282 283 282 281 281 279 277 276 278 281 285 288 290 291 290 289 288 286 285 285 285 285 284 282 282 282 283 284 284 284 284 282 281 278 274 271 269 265 261 260 260 262 264 265 266 267 267
270 271 273 274 275 276 277 278 278 277 275 273 271 270 270 271 273 274 275 275 274 274 274 273 273 272 270 270 269 268 266 267 267 269 273 275 276 278 281 282 281 279 278 278 277 277 278 281 285 289 292 293 292 291 289 287 286 284 282 280 280 281 281 281 281 281 280 279 279 279 280 280 277 274 271 268 265 263 263 264 264 264 264 265 266
270 270 272 273 274 274 275 276 277 278 277 276 274 273 273 273 274 274 274 273 273 272 272 271 271 270 269 268 267 266 265 264 265 269 273 274 274 277 279 281 280 277 276 275 275 276 277 280 283 287 291 293 293 292 290 289 288 286 284 284 284 285 285 285 284 282 281 279 277 276 276 276 276 275 271 268 266 263 262 261 261 261 261 261 262
270 271 271 272 273 274 275 276 277 277 277 277 276 275 275 275 275 274 272 271 270 270 269 269 269 269 268 267 267 265 264 263 264 269 273 273 273 274 277 279 279 276 274 273 274 275 276 278 281 285 289 292 292 292 291 290 290 289 288 287 286 286 286 286 285 284 283 281 280 277 275 273 272 271 269 267 264 263 261 260 260 260 260 260 260
271 271 271 271 273 275 276 276 276 276 276 275 274 274 274 274 273 272 270 269 268 268 268 268 268 268 268 268 267 265 265 264 265 269 273 272 272 273 274 275 276 276 274 274 274 275 276 277 279 282 286 289 290 291 291 290 290 291 289 286 283 283 283 284 284 284 283 282 281 279 277 275 271 268 265 263 261 260 260 260 261 261 262 262 262
270 269 270 272 275 276 277 277 276 275 274 275 274 275 275 275 273 271 269 268 268 268 268 268 268 268 267 267 267 265 265 265 266 269 273 273 272 272 272 273 274 275 276 276 275 275 275 276 277 280 283 286 288 290 292 290 288 289 289 286 282 279 280 283 285 283 282 281 281 279 278 276 273 269 264 259 258 258 258 260 262 264 265 266 266
267 269 272 274 276 277 278 276 275 274 275 277 279 279 279 278 276 274 272 271 270 270 269 268 268 268 267 266 266 265 266 266 267 270 273 273 272 272 272 273 272 273 275 276 277 276 275 275 277 279 282 284 287 289 291 291 286 286 289 289 284 278 278 284 285 281 279 280 280 279 278 276 274 272 266 260 258 258 258 261 264 266 267 268 271
270 272 274 276 278 277 276 274 273 274 277 279 282 284 284 283 282 280 278 276 274 273 271 270 269 268 267 266 265 265 266 266 268 270 272 273 272 272 272 272 272 272 274 275 276 276 275 275 276 278 281 284 286 288 291 290 287 287 290 291 287 280 280 285 283 276 276 279 280 280 279 276 275 273 270 267 264 260 258 262 267 268 268 270 272
275 275 276 277 276 275 273 272 272 273 275 279 284 287 289 290 289 287 284 282 280 278 276 274 273 271 269 268 267 266 266 266 267 268 270 271 271 272 272 272 271 271 272 274 274 274 274 275 276 279 282 284 286 288 289 289 288 290 292 290 287 284 284 283 275 268 272 278 282 283 279 276 275 275 278 278 270 259 257 266 273 275 274 275 276
274 276 278 278 276 274 270 267 267 269 272 277 284 290 294 296 295 293 291 289 287 285 283 281 279 277 274 271 269 268 267 267 267 268 269 270 270 271 271 271 271 271 272 272 272 272 273 275 277 280 282 284 285 287 288 289 291 292 291 287 287 288 285 275 265 263 270 278 282 283 280 279 277 278 283 281 270 262 266 274 279 280 280 281 281
273 274 276 277 275 271 266 266 269 268 266 275 286 293 297 299 299 297 296 294 292 289 287 285 283 281 278 276 273 271 270 269 269 268 268 269 269 269 270 270 270 271 270 270 271 272 273 276 278 279 281 282 284 286 288 291 292 292 289 284 284 286 278 264 261 264 273 282 285 284 283 283 281 278 278 275 269 269 274 278 280 281 283 286 287
272 272 273 273 269 269 274 276 273 266 263 273 285 294 299 301 302 301 300 298 295 291 288 286 285 283 280 277 275 274 273 272 271 269 268 268 268 269 269 270 270 270 269 270 271 272 274 276 277 278 280 282 285 288 290 291 290 290 288 282 280 280 270 260 261 267 275 283 287 287 286 285 283 278 273 271 269 270 273 275 277 280 284 288 291
268 268 271 271 269 276 281 279 274 270 270 274 283 292 299 302 303 303 303 301 296 291 288 287 285 283 281 278 276 276 275 274 273 271 269 268 267 267 268 268 268 269 269 269 271 272 274 275 276 277 280 283 287 290 290 290 288 288 287 283 278 275 268 263 264 268 273 278 282 286 289 289 288 285 279 275 273 273 274 276 279 281 285 288 291
262 263 267 269 271 277 279 278 279 277 273 275 283 291 298 301 302 302 302 300 296 290 287 285 284 282 280 278 277 277 276 275 273 272 270 269 267 266 266 266 267 268 269 270 272 273 274 275 277 279 282 286 289 291 290 289 288 288 287 284 280 275 271 268 266 266 270 273 276 281 286 290 291 291 289 286 283 282 282 283 285 286 289 291 293
262 264 267 270 273 276 277 279 280 276 274 280 287 291 296 299 300 300 300 299 296 292 289 286 282 280 278 277 277 276 275 274 273 272 271 269 268 266 266 267 267 268 270 271 272 274 275 277 278 281 285 288 289 290 289 289 289 289 288 285 281 276 274 274 272 267 266 268 271 275 281 286 289 291 292 293 292 291 289 288 289 290 293 295 297
265 269 271 274 275 276 278 280 278 275 278 285 289 292 295 297 298 298 298 297 296 294 292 289 285 281 278 276 275 274 273 272 272 271 271 270 269 267 267 267 268 269 270 272 273 275 277 278 280 283 286 288 288 289 289 287 286 287 286 284 282 278 276 278 277 272 269 268 269 273 277 282 287 291 292 294 296 296 295 294 294 294 295 297 298
268 271 273 275 276 276 277 277 275 276 281 286 289 293 295 297 297 297 296 296 297 297 295 293 289 284 280 277 275 273 271 270 269 269 269 269 269 269 269 269 270 271 273 274 276 278 279 281 282 284 285 286 287 290 290 287 285 284 282 281 281 279 278 279 279 277 274 273 273 276 279 283 287 291 293 295 297 298 298 298 297 297 297 298 299
269 271 274 275 275 275 276 275 276 279 284 287 291 293 295 296 296 296 296 296 297 298 297 296 293 288 284 280 276 273 271 270 269 269 269 270 271 271 271 271 272 274 275 277 278 280 282 283 283 284 284 284 286 289 291 290 288 286 284 282 280 280 280 280 281 281 281 281 281 282 284 286 289 292 294 296 298 299 299 299 299 298 299 299 299
268 271 273 274 274 275 275 275 278 281 285 288 290 292 294 294 294 295 296 296 298 298 298 296 295 292 288 283 279 276 273 271 269 269 269 270 270 271 271 272 273 274 276 278 280 282 283 284 285 285 284 284 286 289 292 292 292 290 289 288 286 285 285 285 286 287 287 287 287 287 288 289 291 293 295 297 298 299 299 298 298 299 299 300 300
271 273 273 273 274 274 275 277 279 282 285 287 289 291 293 293 293 294 295 296 297 298 297 296 294 293 290 287 282 279 276 274 272 271 270 270 271 271 271 272 273 275 277 279 281 282 284 285 286 286 286 286 288 291 293 294 294 294 293 292 292 291 291 291 291 291 291 291 290 290 290 290 291 293 295 296 297 297 297 297 297 298 299 300 300
272 271 271 272 273 275 277 279 281 283 285 287 289 291 292 292 293 294 295 296 297 297 296 295 293 292 291 288 285 282 278 276 274 273 273 272 272 272 272 273 274 276 278 279 280 282 283 284 286 287 288 291 293 295 297 297 297 296 296 295 295 294 294 294 293 293 293 292 291 291 290 290 291 292 293 293 294 294 295 295 296 297 299 300 299
267 268 270 272 274 275 277 279 282 284 287 289 290 291 291 292 293 294 295 296 296 296 296 294 293 292 290 289 287 284 281 278 276 275 274 273 273 273 273 273 273 275 276 278 281 283 286 288 290 292 294 296 297 298 299 299 299 298 297 296 295 294 294 293 292 292 291 291 291 290 290 290 290 291 291 291 291 292 293 294 295 296 297 298 297
265 268 270 272 274 276 278 280 283 285 287 288 289 289 291 292 292 293 294 294 294 294 294 294 293 292 290 288 287 285 283 280 279 278 277 277 276 276 277 277 279 281 283 286 289 291 293 294 295 296 297 298 298 297 297 297 297 296 296 295 294 293 292 291 290 290 289 289 289 289 289 290 290 290 290 290 291 292 292 293 293 294 296 296 295
265 267 269 271 273 275 278 280 282 284 285 286 287 288 289 289 290 291 292 292 292 293 293 292 292 292 290 287 286 285 283 281 280 280 280 280 280 279 280 281 284 287 290 293 295 295 295 296 296 297 297 297 296 295 295 294 293 292 291 291 290 289 288 288 287 287 287 288 288 288 288 288 289 289 290 290 291 292 292 292 293 293 294 294 293
264 266 269 271 273 275 277 279 280 282 283 285 286 287 287 287 288 288 289 289 290 291 291 291 292 292 290 287 285 284 283 282 281 281 281 280 279 279 278 279 280 283 286 290 291 292 292 293 294 295 295 295 295 295 294 293 291 289 288 287 287 286 286 286 286 286 286 287 287 287 287 288 289 289 289 290 290 291 291 292 292 292 292 291 290
266 267 269 271 273 275 277 278 280 281 282 283 284 284 284 284 285 286 287 287 287 287 288 289 290 289 287 285 283 283 282 281 280 280 279 278 276 275 275 276 277 279 283 285 287 288 289 290 291 292 293 294 294 294 294 292 289 287 286 285 285 285 286 286 286 286 286 286 286 287 287 288 288 289 289 289 290 291 291 291 292 292 291 291 290
267 269 271 272 274 275 277 278 279 280 281 281 281 281 281 282 283 284 284 285 285 286 285 286 286 285 283 282 281 280 279 278 278 278 277 276 275 274 275 276 277 279 281 283 284 284 285 287 288 289 290 291 292 293 292 290 288 286 284 284 284 284 285 285 285 285 286 286 286 287 288 288 289 289 290 290 291 291 291 292 293 293 293 292 292
268 269 271 273 274 275 276 277 278 279 280 280 280 280 281 282 282 282 282 283 283 282 281 280 281 280 280 279 279 279 279 279 279 278 278 277 277 277 278 278 279 280 281 282 282 283 284 284 285 285 286 287 288 290 290 288 286 285 284 283 283 283 283 284 284 285 286 287 287 288 289 290 290 290 291 291 291 291 292 293 293 294 293 293 294
Height
10744 10744 10742 10742 10741 10741 10741 10740 10740 10740 10740 10739 10739 10738 10737 10737 10737 10737 10737 10737 10737 10737 10736 10736 10735 10735 10734 10734 10733 10733 10732 10731 10731 10731 10730 10729 10728 10727 10727 10727 10726 10725 10724 10723 10722 10721 10722 10722 10722 10722 10723 10723 10724 10725 10725 10726 10727 10727 10727 10727 10728 10728 10729 10730 10731 10731 10732 10732 10732 10732 10733 10733 10733 10733 10734 10734 10734 10735 10735 10735 10736 10736 10736 10737 10737
10741 10741 10740 10739 10739 10738 10738 10737 10737 10737 10736 10736 10735 10735 10734 10734 10733 10733 10733 10733 10734 10734 10734 10733 10733 10732 10732 10731 10730 10730 10729 10729 10728 10728 10727 10726 10726 10725 10724 10724 10723 10722 10721 10720 10719 10719 10718 10719 10719 10719 10720 10720 10721 10722 10723 10723 10724 10724 10724 10725 10725 10726 10726 10727 10728 10728 10729 10729 10729 10730 10730 10730 10730 10730 10731 10731 10731 10731 10732 10732 10733 10733 10733 10733 10734
10737 10737 10737 10737 10736 10735 10735 10734 10733 10733 10733 10732 10732 10731 10731 10730 10730 10730 10730 10730 10731 10731 10731 10731 10730 10730 10729 10728 10727 10726 10726 10726 10726 10725 10725 10724 10723 10722 10721 10721 10721 10720 10718 10717 10716 10715 10716 10716 10717 10717 10718 10718 10719 10719 10720 10721 10721 10721 10721 10722 10722 10723 10724 10724 10725 10725 10725 10726 10726 10726 10727 10727 10727 10727 10727 10727 10727 10728 10728 10729 10729 10729 10730 10730 10730
10734 10734 10734 10734 10733 10732 10731 10731 10730 10730 10729 10729 10729 10728 10728 10728 10727 10727 10727 10727 10728 10728 10729 10729 10728 10727 10726 10725 10724 10723 10723 10723 10723 10723 10722 10722 10721 10719 10718 10718 10718 10717 10715 10713 10712 10712 10713 10714 10714 10715 10715 10716 10716 10717 10718 10718 10718 10719 10719 10720 10720 10721 10721 10722 10722 10722 10722 10723 10723 10723 10723 10723 10723 10723 10723 10724 10724 10724 10724 10725 10725 10726 10726 10726 10727
10730 10730 10730 10730 10729 10729 10728 10727 10727 10726 10726 10726 10726 10725 10725 10724 10724 10723 10724 10725 10725 10726 10726 10726 10725 10724 10723 10722 10721 10721 10721 10721 10720 10720 10720 10720 10718 10717 10715 10715 10714 10713 10712 10710 10709 10710 10711 10712 10713 10713 10714 10714 10715 10715 10715 10716 10716 10717 10717 10718 10719 10719 10719 10719 10719 10719 10719 10719 10719 10719 10719 10719 10720 10720 10720 10720 10720 10721 10721 10721 10722 10722 10723 10723 10724
10726 10726 10726 10726 10725 10725 10725 10724 10723 10723 10722 10722 10722 10722 10722 10721 10720 10720 10721 10722 10722 10723 10723 10722 10721 10720 10719 10719 10718 10718 10718 10718 10718 10718 10718 10718 10716 10713 10711 10711 10711 10710 10708 10706 10706 10707 10709 10710 10711 10711 10712 10713 10713 10713 10713 10714 10714 10715 10716 10716 10717 10717 10717 10717 10717 10717 10716 10716 10716 10716 10716 10716 10716 10716 10716 10716 10717 10717 10717 10718 10718 10719 10719 10720 10720
10721 10722 10722 10722 10721 10721 10721 10721 10720 10720 10719 10719 10719 10718 10718 10717 10717 10717 10718 10719 10719 10720 10719 10719 10718 10717 10716 10716 10716 10716 10716 10716 10716 10716 10716 10716 10713 10709 10709 10709 10708 10707 10706 10705 10704 10705 10706 10707 10708 10709 10710 10710 10711 10711 10712 10712 10713 10713 10714 10715 10715 10715 10715 10715 10714 10714 10713 10713 10713 10713 10713 10713 10713 10713 10713 10713 10713 10713 10714 10714 10714 10715 10716 10716 10716
10717 10717 10718 10718 10717 10717 10717 10717 10717 10717 10716 10716 10715 10715 10714 10714 10714 10715 10715 10716 10716 10716 10716 10715 10714 10714 10714 10714 10714 10714 10714 10714 10714 10714 10713 10713 10710 10707 10707 10707 10705 10704 10703 10703 10704 10704 10705 10705 10706 10707 10708 10708 10709 10709 10710 10710 10711 10712 10712 10713 10713 10712 10712 10712 10711 10711 10711 10711 10711 10711 10711 10710 10710 10710 10710 10710 10710 10710 10710 10710 10711 10711 10711 10712 10712
10713 10713 10714 10714 10714 10714 10714 10714 10714 10714 10714 10713 10713 10712 10711 10711 10711 10712 10713 10713 10713 10712 10712 10711 10711 10710 10711 10711 10711 10711 10711 10711 10711 10711 10710 10710 10708 10707 10707 10705 10703 10702 10701 10702 10702 10703 10704 10704 10705 10705 10705 10706 10706 10707 10707 10708 10709 10710 10710 10710 10710 10709 10709 10709 10709 10708 10708 10708 10708 10708 10708 10708 10708 10708 10708 10707 10707 10707 10707 10707 10707 10707 10707 10708 10709
10709 10709 10709 10709 10709 10710 10710 10711 10711 10711 10711 10710 10710 10708 10708 10708 10709 10709 10709 10709 10709 10708 10708 10708 10707 10707 10708 10708 10708 10708 10708 10708 10708 10708 10708 10707 10706 10707 10706 10703 10701 10700 10700 10700 10701 10702 10702 10702 10703 10703 10703 10703 10704 10705 10705 10706 10707 10707 10707 10707 10706 10706 10706 10706 10706 10707 10707 10706 10705 10705 10705 10705 10705 10705 10705 10705 10705 10704 10704 10704 10703 10703 10704 10704 10705
10705 10705 10705 10704 10705 10705 10706 10706 10707 10707 10707 10707 10706 10705 10705 10705 10706 10706 10706 10706 10705 10705 10705 10705 10704 10704 10704 10705 10705 10705 10705 10704 10704 10704 10704 10705 10705 10705 10703 10701 10700 10699 10699 10699 10700 10701 10701 10701 10701 10701 10700 10701 10702 10703 10703 10704 10704 10704 10704 10703 10703 10703 10704 10704 10704 10704 10704 10703 10702 10702 10702 10703 10703 10703 10702 10702 10702 10701 10701 10701 10700 10700 10700 10701 10701
10701 10701 10701 10701 10701 10701 10701 10702 10702 10703 10703 10703 10702 10701 10701 10702 10702 10703 10703 10702 10701 10701 10702 10702 10701 10701 10701 10701 10701 10702 10701 10701 10700 10700 10701 10701 10701 10701 10700 10699 10699 10698 10697 10698 10699 10700 10699 10698 10698 10697 10698 10699 10700 10700 10701 10701 10700 10699 10700 10700 10701 10701 10702 10702 10702 10701 10700 10699 10699 10699 10700 10700 10700 10700 10699 10699 10699 10698 10698 10697 10697 10697 10697 10697 10698
10697 10697 10698 10698 10698 10698 10698 10698 10698 10699 10699 10699 10698 10697 10698 10698 10699 10699 10699 10699 10698 10698 10699 10699 10698 10698 10698 10698 10698 10698 10697 10697 10697 10696 10697 10697 10696 10696 10696 10696 10696 10695 10695 10695 10697 10698 10696 10695 10695 10694 10695 10696 10697 10698 10699 10698 10696 10696 10697 10698 10698 10698 10699 10700 10698 10698 10697 10696 10696 10696 10695 10696 10696 10696 10696 10696 10695 10695 10694 10694 10694 10694 10694 10694 10694
10693 10694 10694 10694 10695 10695 10695 10695 10695 10695 10695 10695 10694 10694 10694 10695 10695 10696 10696 10695 10695 10695 10695 10695 10695 10695 10695 10695 10695 10694 10694 10694 10693 10693 10692 10692 10691 10691 10691 10692 10693 10693 10693 10692 10694 10694 10693 10692 10692 10692 10692 10692 10693 10695 10696 10696 10694 10693 10694 10695 10695 10696 10697 10696 10695 10694 10694 10692 10692 10692 10691 10691 10692 10692 10691 10691 10691 10691 10690 10690 10690 10690 10690 10690 10691
10690 10691 10691 10691 10691 10692 10692 10692 10692 10692 10692 10692 10691 10691 10691 10691 10692 10692 10692 10692 10692 10692 10692 10692 10692 10692 10692 10692 10691 10691 10691 10691 10690 10690 10689 10688 10687 10687 10688 10689 10690 10690 10690 10689 10690 10691 10690 10690 10689 10689 10689 10689 10690 10691 10692 10693 10692 10691 10690 10691 10692 10692 10693 10692 10690 10690 10689 10688 10687 10686 10685 10685 10687 10687 10686 10686 10686 10686 10686 10686 10686 10686 10686 10686 10686
10686 10687 10687 10687 10687 10688 10688 10688 10688 10688 10688 10689 10688 10688 10688 10688 10688 10688 10689 10689 10689 10689 10689 10689 10688 10688 10688 10688 10688 10688 10688 10688 10687 10687 10686 10685 10684 10685 10686 10686 10687 10688 10687 10687 10687 10687 10687 10687 10687 10686 10686 10686 10687 10688 10689 10689 10689 10688 10687 10687 10688 10688 10688 10687 10685 10684 10683 10682 10681 10680 10679 10678 10679 10681 10681 10681 10681 10681 10682 10682 10682 10682 10682 10682 10682
10682 10683 10683 10683 10684 10684 10684 10684 10685 10685 10685 10685 10685 10685 10685 10684 10684 10685 10685 10685 10685 10686 10686 10686 10685 10685 10685 10685 10685 10684 10684 10684 10684 10684 10683 10682 10681 10682 10682 10683 10684 10684 10685 10684 10684 10684 10684 10684 10684 10683 10682 10683 10684 10685 10685 10685 10685 10684 10683 10683 10684 10684 10683 10682 10680 10679 10678 10677 10676 10675 10675 10674 10673 10674 10674 10675 10676 10677 10677 10678 10678 10678 10678 10678 10678
10678 10679 10679 10679 10680 10680 10680 10680 10681 10681 10681 10682 10682 10682 10682 10681 10681 10682 10682 10682 10682 10682 10683 10682 10681 10681 10681 10681 10681 10681 10681 10681 10682 10681 10681 10680 10679 10679 10679 10679 10679 10680 10680 10680 10680 10680 10680 10680 10680 10679 10678 10679 10680 10681 10680 10680 10680 10680 10679 10679 10678 10678 10679 10678 10676 10675 10673 10673 10672 10671 10671 10671 10671 10670 10670 10669 10670 10672 10673 10673 10674 10674 10674 10674 10674
10673 10674 10675 10675 10675 10676 10676 10676 10676 10677 10677 10678 10678 10678 10678 10678 10678 10678 10679 10679 10679 10679 10679 10679 10678 10677 10677 10678 10678 10677 10677 10678 10678 10679 10678 10677 10676 10676 10676 10675 10675 10675 10675 10676 10676 10675 10675 10675 10676 10675 10674 10674 10675 10675 10675 10675 10674 10674 10674 10674 10673 10673 10673 10673 10672 10670 10668 10668 10668 10667 10666 10666 10667 10667 10667 10666 10665 10666 10667 10668 10669 10669 10669 10669 10669
10669 10670 10670 10671 10671 10671 10671 10672 10672 10673 10673 10674 10674 10675 10675 10675 10675 10675 10675 10676 10676 10676 10676 10675 10674 10673 10673 10674 10674 10674 10674 10674 10675 10675 10675 10674 10674 10673 10673 10672 10672 10672 10671 10671 10671 10671 10671 10671 10671 10671 10670 10670 10670 10670 10670 10670 10669 10669 10668 10668 10668 10667 10667 10667 10666 10665 10664 10663 10663 10662 10662 10661 10662 10662 10663 10662 10661 10661 10661 10662 10663 10664 10665 10664 10664
10665 10665 10666 10666 10667 10667 10667 10667 10668 10669 10669 10670 10671 10671 10671 10672 10671 10671 10671 10672 10672 10673 10672 10671 10670 10669 10669 10669 10670 10671 10671 10671 10671 10671 10671 10671 10670 10670 10670 10669 10669 10668 10668 10668 10667 10667 10667 10667 10667 10667 10667 10666 10666 10666 10665 10665 10664 10663 10663 10663 10663 10663 10662 10662 10661 10661 10660 10659 10658 10658 10657 10657 10657 10657 10657 10658 10658 10657 10657 10657 10658 10659 10659 10660 10659
10661 10661 10662 10662 10662 10662 10663 10663 10664 10665 10665 10666 10667 10667 10668 10668 10667 10667 10667 10667 10668 10668 10668 10667 10666 10666 10665 10665 10666 10667 10667 10668 10668 10668 10667 10667 10667 10666 10666 10666 10665 10665 10664 10664 10664 10664 10663 10663 10663 10663 10663 10663 10663 10662 10661 10660 10659 10658 10658 10658 10658 10658 10657 10657 10656 10656 10655 10655 10654 10653 10653 10652 10652 10652 10652 10653 10653 10654 10653 10653 10653 10653 10654 10654 10654
10657 10657 10657 10658 10658 10658 10659 10659 10660 10660 10661 10662 10663 10664 10664 10664 10663 10663 10662 10662 10662 10663 10664 10663 10663 10663 10662 10661 10661 10662 10663 10664 10664 10664 10664 10663 10663 10663 10662 10662 10661 10661 10661 10661 10660 10660 10659 10659 10659 10659 10659 10659 10659 10658 10657 10656 10655 10654 10654 10653 10653 10653 10652 10652 10651 10651 10650 10650 10649 10649 10648 10647 10647 10647 10647 10647 10647 10648 10648 10648 10648 10648 10648 10648 10648
10652 10653 10653 10653 10654 10654 10655 10655 10656 10656 10657 10658 10659 10660 10660 10660 10659 10659 10658 10658 10658 10658 10659 10659 10659 10659 10659 10658 10658 10658 10659 10659 10660 10660 10660 10659 10659 10658 10658 10658 10658 10657 10657 10657 10657 10656 10656 10655 10655 10655 10655 10655 10654 10654 10653 10652 10651 10651 10650 10649 10649 10648 10648 10647 10647 10646 10646 10645 10645 10644 10643 10643 10642 10642 10641 10641 10641 10642 10642 10643 10643 10643 10642 10642 10642
10647 10647 10648 10649 10649 10650 10651 10651 10652 10652 10653 10654 10655 10655 10655 10655 10655 10655 10654 10654 10654 10654 10654 10654 10655 10655 10655 10655 10654 10654 10655 10655 10656 10656 10656 10655 10654 10654 10654 10654 10654 10653 10653 10653 10652 10652 10651 10651 10651 10651 10650 10650 10649 10649 10648 10648 10647 10647 10646 10646 10645 10644 10643 10643 10642 10642 10641 10640 10639 10639 10638 10638 10638 10637 10636 10636 10636 10636 10636 10637 10637 10637 10636 10636 10636
10641 10642 10643 10643 10644 10646 10646 10647 10648 10648 10649 10649 10650 10650 10651 10651 10651 10651 10650 10650 10650 10650 10650 10650 10650 10651 10651 10651 10651 10651 10651 10652 10652 10652 10651 10651 10650 10650 10650 10650 10650 10649 10649 10648 10648 10648 10647 10647 10647 10646 10646 10646 10645 10645 10644 10644 10644 10643 10643 10642 10641 10640 10639 10638 10637 10637 10636 10635 10634 10633 10633 10633 10632 10632 10631 10631 10630 10630 10630 10630 10630 10630 10630 10629 10629
10637 10637 10638 10639 10640 10641 10642 10643 10644 10644 10644 10645 10645 10645 10645 10646 10646 10646 10646 10646 10646 10646 10646 10646 10646 10646 10646 10646 10647 10647 10647 10648 10648 10647 10647 10646 10646 10646 10646 10646 10646 10645 10645 10644 10643 10643 10643 10643 10642 10642 10642 10641 10641 10640 10640 10640 10640 10639 10639 10638 10636 10635 10634 10633 10632 10631 10630 10629 10628 10627 10627 10627 10627 10626 10626 10625 10625 10624 10624 10623 10623 10623 10623 10623 10623
10632 10632 10633 10634 10635 10636 10637 10638 10639 10639 10640 10640 10640 10640 10640 10641 10641 10641 10641 10641 10641 10642 10642 10642 10642 10643 10642 10642 10642 10643 10643 10644 10643 10643 10642 10641 10641 10641 10642 10642 10642 10641 10640 10640 10639 10639 10639 10638 10638 10637 10637 10637 10636 10636 10635 10635 10635 10635 10634 10632 10631 10630 10629 10628 10626 10625 10624 10623 10622 10621 10621 10621 10620 10620 10620 10619 10619 10618 10617 10617 10617 10617 10617 10616 10616
10627 10628 10628 10629 10630 10631 10632 10633 10634 10634 10635 10636 10636 10636 10636 10637 10637 10637 10637 10637 10637 10637 10637 10638 10638 10639 10638 10638 10638 10639 10639 10640 10639 10639 10637 10636 10636 10637 10637 10637 10637 10637 10636 10635 10635 10634 10634 10634 10633 10633 10632 10631 10631 10631 10631 10631 10631 10630 10628 10627 10625 10624 10623 10622 10621 10620 10618 10617 10616 10615 10615 10615 10614 10614 10613 10613 10612 10611 10611 10612 10612 10611 10611 10610 10609
10623 10624 10624 10625 10626 10627 10628 10628 10629 10630 10630 10631 10631 10632 10632 10632 10632 10632 10633 10632 10632 10632 10632 10633 10633 10634 10634 10634 10634 10634 10635 10635 10635 10634 10632 10631 10632 10632 10632 10633 10632 10632 10631 10631 10630 10630 10629 10629 10628 10627 10626 10626 10626 10626 10626 10626 10625 10624 10622 10621 10619 10619 10618 10617 10615 10614 10613 10611 10610 10610 10610 10609 10608 10607 10607 10606 10605 10605 10606 10607 10607 10606 10605 10604 10602
10619 10619 10620 10621 10622 10623 10624 10624 10625 10625 10626 10627 10627 10628 10628 10628 10628 10628 10628 10628 10627 10627 10627 10627 10628 10628 10629 10629 10629 10629 10630 10630 10630 10628 10627 10626 10626 10627 10627 10628 10627 10627 10626 10626 10625 10625 10624 10623 10623 10622 10621 10620 10621 10621 10621 10620 10620 10619 10617 10615 10613 10613 10612 10611 10609 10608 10607 10606 10605 10605 10604 10603 10602 10601 10601 10600 10600 10601 10602 10602 10601 10599 10598 10597 10596
10614 10615 10615 10617 10618 10619 10620 10620 10621 10622 10622 10623 10623 10623 10624 10624 10624 10624 10623 10622 10622 10622 10622 10622 10622 10622 10623 10623 10623 10624 10625 10625 10624 10623 10622 10621 10621 10621 10622 10622 10622 10622 10621 10621 10620 10619 10618 10618 10618 10617 10616 10615 10615 10616 10615 10615 10614 10613 10611 10609 10607 10606 10605 10604 10603 10603 10602 10602 10601 10600 10599 10598 10597 10596 10596 10596 10596 10597 10596 10595 10594 10593 10592 10591 10589
10609 10610 10611 10612 10613 10614 10615 10616 10617 10618 10618 10618 10619 10619 10620 10620 10620 10619 10619 10618 10617 10617 10617 10617 10617 10617 10617 10617 10617 10618 10619 10619 10618 10617 10616 10616 10616 10616 10616 10616 10616 10616 10616 10615 10615 10614 10613 10613 10612 10612 10610 10610 10610 10610 10609 10608 10608 10607 10606 10604 10602 10600 10599 10598 10598 10598 10597 10597 10596 10595 10593 10592 10591 10591 10590 10591 10592 10592 10590 10588 10587 10586 10585 10584 10583
10605 10606 10607 10608 10609 10609 10611 10611 10612 10613 10613 10614 10614 10614 10615 10615 10615 10615 10615 10614 10613 10612 10612 10611 10611 10611 10611 10611 10611 10611 10612 10613 10613 10612 10611 10611 10611 10611 10610 10610 10610 10610 10610 10610 10609 10608 10607 10607 10607 10606 10605 10605 10605 10604 10603 10602 10601 10600 10600 10599 10598 10596 10594 10593 10593 10593 10592 10591 10591 10589 10588 10587 10587 10586 10586 10586 10586 10585 10583 10582 10581 10580 10579 10577 10575
10601 10602 10603 10604 10604 10605 10606 10607 10607 10608 10608 10608 10609 10609 10609 10609 10609 10610 10610 10610 10609 10608 10607 10605 10605 10605 10605 10605 10605 10605 10606 10606 10606 10606 10606 10606 10605 10605 10605 10604 10604 10604 10604 10604 10603 10602 10601 10600 10600 10600 10599 10599 10599 10598 10597 10595 10594 10593 10593 10593 10593 10591 10590 10589 10588 10588 10587 10586 10585 10584 10583 10582 10582 10581 10581 10580 10579 10578 10577 10576 10575 10574 10572 10570 10568
10596 10597 10598 10600 10600 10601 10602 10602 10602 10603 10603 10603 10604 10604 10604 10604 10604 10604 10604 10604 10604 10603 10601 10600 10599 10598 10599 10599 10599 10600 10599 10599 10599 10599 10600 10600 10600 10599 10599 10598 10598 10597 10597 10597 10596 10596 10595 10594 10594 10594 10594 10594 10593 10592 10591 10589 10587 10587 10586 10586 10586 10586 10585 10584 10584 10583 10582 10581 10580 10579 10578 10577 10576 10575 10574 10573 10572 10571 10570 10569 10568 10566 10564 10562 10560
10591 10593 10594 10595 10596 10596 10596 10597 10597 10597 10597 10597 10597 10597 10598 10598 10598 10598 10599 10599 10599 10598 10597 10595 10593 10592 10592 10592 10593 10593 10593 10593 10592 10592 10593 10593 10593 10593 10593 10592 10592 10591 10590 10590 10589 10589 10589 10589 10589 10588 10588 10588 10587 10585 10584 10582 10581 10580 10580 10580 10580 10580 10579 10579 10578 10577 10576 10575 10574 10573 10572 10570 10569 10567 10566 10566 10565 10564 10562 10561 10560 10558 10556 10554 10552
10587 10588 10589 10590 10590 10591 10591 10591 10590 10590 10590 10590 10590 10590 10591 10592 10592 10593 10593 10594 10594 10594 10592 10591 10589 10588 10587 10586 10586 10586 10586 10586 10585 10585 10586 10586 10586 10586 10586 10586 10585 10585 10584 10583 10583 10583 10583 10583 10583 10581 10581 10581 10580 10579 10577 10576 10574 10573 10573 10573 10572 10572 10572 10572 10572 10571 10570 10569 10568 10567 10565 10563 10561 10559 10558 10557 10556 10556 10554 10553 10551 10549 10546 10544 10542
10582 10583 10583 10584 10585 10585 10585 10585 10584 10584 10584 10584 10583 10583 10584 10585 10585 10586 10587 10588 10588 10588 10587 10586 10584 10583 10582 10581 10580 10579 10579 10579 10578 10578 10578 10578 10578 10579 10579 10579 10578 10578 10578 10577 10576 10576 10576 10577 10576 10575 10574 10573 10572 10572 10571 10570 10568 10567 10566 10566 10565 10565 10564 10564 10564 10563 10563 10562 10561 10560 10557 10555 10553 10551 10549 10548 10547 10547 10545 10544 10541 10539 10536 10534 10532
10576 10577 10578 10578 10578 10578 10579 10578 10578 10577 10577 10577 10577 10577 10577 10577 10578 10579 10580 10581 10582 10582 10582 10581 10579 10578 10576 10575 10574 10573 10572 10572 10571 10571 10571 10570 10570 10570 10570 10571 10571 10571 10570 10570 10569 10569 10569 10569 10568 10568 10566 10565 10564 10564 10563 10563 10562 10561 10560 10559 10558 10558 10557 10556 10556 10555 10555 10555 10553 10551 10548 10546 10544 10542 10540 10539 10538 10537 10536 10534 10531 10529 10526 10524 10523
10571 10571 10572 10572 10572 10571 10572 10572 10571 10571 10571 10571 10571 10570 10570 10570 10571 10571 10572 10573 10574 10574 10575 10574 10573 10572 10571 10570 10568 10567 10566 10565 10565 10564 10564 10564 10563 10563 10563 10562 10562 10562 10562 10562 10561 10560 10560 10560 10560 10560 10559 10558 10557 10557 10556 10555 10554 10554 10553 10553 10552 10551 10550 10549 10548 10547 10547 10546 10544 10541 10539 10537 10535 10533 10531 10529 10528 10527 10525 10524 10521 10519 10516 10514 10513
10565 10565 10565 10565 10565 10565 10565 10565 10565 10565 10564 10564 10565 10564 10564 10564 10564 10564 10564 10565 10565 10566 10567 10567 10566 10566 10565 10564 10562 10561 10560 10559 10558 10558 10558 10557 10557 10556 10555 10555 10554 10554 10554 10554 10553 10552 10551 10551 10551 10551 10551 10550 10549 10549 10548 10547 10546 10545 10545 10545 10544 10543 10542 10541 10539 10538 10537 10536 10534 10532 10529 10527 10525 10523 10521 10519 10518 10517 10516 10514 10511 10509 10507 10505 10503
10558 10558 10558 10558 10558 10558 10558 10558 10559 10559 10559 10558 10558 10558 10558 10557 10557 10557 10557 10557 10557 10558 10558 10559 10559 10559 10559 10558 10557 10556 10554 10553 10552 10552 10552 10551 10550 10550 10549 10548 10547 10547 10546 10546 10545 10544 10543 10543 10542 10541 10541 10541 10540 10540 10539 10538 10537 10536 10535 10535 10535 10534 10533 10531 10530 10528 10527 10526 10524 10522 10520 10518 10515 10514 10512 10510 10508 10507 10506 10504 10501 10498 10496 10494 10492
10550 10550 10551 10551 10551 10551 10551 10551 10552 10552 10552 10552 10552 10551 10550 10550 10549 10549 10548 10548 10548 10549 10550 10550 10550 10551 10551 10551 10550 10550 10549 10548 10547 10546 10545 10545 10544 10543 10542 10541 10540 10539 10539 10538 10538 10537 10537 10536 10535 10534 10532 10532 10531 10530 10529 10528 10527 10526 10525 10525 10524 10523 10522 10521 10520 10518 10516 10515 10514 10512 10510 10508 10506 10505 10503 10501 10498 10496 10494 10493 10490 10487 10485 10482 10481
10544 10544 10544 10544 10544 10544 10544 10544 10544 10545 10545 10544 10544 10543 10542 10541 10541 10540 10539 10539 10539 10539 10540 10540 10541 10541 10542 10542 10542 10542 10542 10541 10540 10539 10538 10537 10536 10536 10535 10534 10533 10532 10532 10531 10530 10530 10529 10528 10526 10525 10523 10522 10520 10519 10518 10517 10516 10516 10515 10514 10513 10512 10512 10510 10509 10508 10506 10505 10504 10502 10500 10497 10496 10495 10494 10491 10488 10485 10483 10481 10479 10476 10474 10471 10469
10538 10539 10538 10537 10537 10537 10537 10537 10538 10538 10538 10537 10536 10535 10534 10533 10532 10531 10530 10530 10530 10530 10531 10531 10531 10532 10532 10533 10533 10534 10533 10533 10532 10531 10531 10530 10529 10528 10527 10525 10524 10524 10522 10522 10521 10519 10518 10517 10516 10514 10513 10512 10511 10509 10508 10507 10506 10505 10505 10504 10503 10502 10501 10500 10498 10498 10496 10494 10493 10491 10489 10487 10485 10483 10481 10479 10476 10474 10472 10469 10467 10465 10462 10460 10458
10532 10532 10531 10530 10530 10530 10530 10531 10532 10531 10531 10530 10529 10529 10528 10526 10525 10524 10523 10522 10522 10523 10523 10523 10523 10524 10524 10524 10524 10524 10524 10524 10524 10523 10522 10521 10520 10520 10518 10515 10514 10513 10511 10510 10510 10508 10507 10506 10505 10505 10504 10502 10501 10500 10499 10498 10498 10496 10495 10495 10494 10492 10491 10490 10488 10487 10486 10484 10482 10481 10479 10477 10474 10472 10469 10466 10464 10462 10459 10457 10455 10452 10450 10449 10447
10525 10524 10524 10524 10523 10523 10523 10524 10525 10525 10524 10523 10523 10523 10522 10521 10520 10519 10518 10517 10516 10516 10515 10515 10515 10515 10515 10515 10515 10515 10515 10515 10514 10514 10514 10513 10512 10511 10510 10508 10506 10505 10504 10503 10502 10501 10499 10498 10497 10496 10495 10494 10492 10491 10490 10489 10488 10487 10486 10485 10483 10482 10480 10479 10477 10476 10475 10473 10471 10469 10468 10466 10463 10461 10458 10454 10451 10449 10446 10444 10442 10439 10438 10437 10436
10518 10517 10516 10516 10516 10515 10515 10516 10517 10517 10516 10516 10516 10515 10515 10515 10514 10512 10511 10511 10510 10510 10509 10508 10508 10507 10507 10507 10506 10506 10505 10505 10505 10505 10504 10504 10504 10503 10502 10501 10500 10499 10498 10497 10495 10494 10492 10491 10489 10488 10487 10485 10483 10482 10480 10479 10478 10476 10475 10474 10472 10470 10468 10467 10465 10464 10463 10462 10459 10457 10456 10454 10451 10450 10447 10443 10439 10436 10432 10430 10427 10425 10423 10423 10423
10511 10510 10509 10508 10508 10507 10507 10508 10508 10508 10508 10508 10507 10507 10507 10508 10508 10507 10505 10504 10503 10502 10502 10502 10501 10501 10500 10499 10499 10498 10497 10497 10497 10497 10497 10496 10496 10495 10494 10493 10492 10491 10490 10488 10487 10485 10484 10483 10482 10480 10479 10477 10475 10473 10471 10470 10468 10466 10464 10463 10461 10459 10457 10455 10453 10452 10450 10449 10446 10444 10443 10441 10438 10436 10434 10432 10428 10423 10418 10415 10413 10409 10407 10408 10409
10503 10502 10501 10500 10499 10498 10498 10498 10498 10498 10498 10497 10497 10498 10499 10500 10501 10501 10500 10498 10496 10493 10492 10493 10493 10493 10492 10491 10490 10489 10489 10489 10488 10488 10488 10488 10487 10486 10484 10484 10483 10482 10481 10479 10477 10475 10474 10473 10472 10471 10470 10469 10467 10465 10463 10460 10458 10456 10454 10452 10450 10449 10447 10444 10442 10439 10437 10435 10433 10430 10429 10427 10423 10421 10419 10418 10416 10411 10405 10401 10398 10394 10391 10392 10394